Starlink 31896

operational
NORAD ID: 59851 Int'l Des: 2024-097 Owner: SPXS Country: US Constellation: starlink
LEOCIRCULAR

About Starlink 31896

Description loading...

Live Position

Loading 3D Globe...

Upcoming Passes

Altitude History

Altitude vs Time

uPlot chart will show altitude changes over time

Two-Line Element Set

1 59851U 24097S 25259.08587885 .00003465 00000-0 13530-3 0 9995
2 59851 43.0055 180.4100 0001906 285.4738 74.5903 15.27602146 75211
Epoch: Sep 16, 2025 • Age: 13 hours

Current Status

Altitude 482.1 km
Velocity 7.63 km/s
Sub-Earth Point 15.21°N, 22.21°W
Launch Date May 23, 2024
Age 1.3 years
Type internet

Technical Details

Classification Payload
Mass 730.00 kg
Dry Mass 700.00 kg
Total Mass 730.00 kg
Length 0.30 m
Diameter 4.10 m
Span 29.00 m
Shape Box + pan
Manufacturer SPXS
Bus Type Starlink V2M
Phase Status In Orbit
Owner/State SPXS/US

Large Constellations

Loading constellations...